Tracking 29892 objects as of 21-Nov-2024
HD Live streaming from Space Station
objects crossing your sky now

IRIDIUM 33 DEB

Track IRIDIUM 33 DEB now!
10-day predictions


NORAD ID: 35618
Int'l Code: 1997-051QQ
Perigee: 713.6 km
Apogee: 753.4 km
Inclination: 86.3 °
Period: 99.3 minutes
Semi major axis: 7104 km
RCS: 0.0121 m2 (small)
Launch date: September 14, 1997
Source: United States (US)
Launch site: TYURATAM MISSILE AND SPACE COMPLEX (TTMTR)

Note: This is SATELLITE DEBRIS
Your satellite tracking list
Your tracking list is empty




NASA's NSSDC Master Catalog

Two Line Element Set (TLE):
1 35618U 97051QQ  24321.32378137  .00003425  00000-0  87950-3 0  9997
2 35618  86.3427 164.3084 0028053 248.1503 111.6717 14.49777971597171
Source of the keplerian elements: AFSPC